Location: Clyde
(45.1830°S, 169.3170°E)
Time: 18:23:48
(UTC+13:00)

Lacrosse 5 rocket - Pass Details

Date: 24 January 2019
Orbit: 469 x 630 km, 57.0° (Epoch: 06 February)

Event Time Altitude Azimuth Distance (km) Brightness Sun altitude
Rises 22:46:56 0° 229° (SW) 2,597 6.8 -12.7°
Reaches altitude 10° 22:49:45 10° 208° (SSW) 1,691 5.1 -13.1°
Maximum altitude 22:52:17 17° 166° (SSE) 1,306 3.6 -13.4°
Drops below altitude 10° 22:54:47 10° 123° (ESE) 1,664 3.7 -13.7°
Enters shadow 22:56:34 - 107° (ESE) 2,204 4.1 -13.9°
